Location: Unspecified
(17.6330°N, 0.0000°E)
Time: 05:23:41
(UTC+00:00)

S-56A Canister/Altair - Pass Details

Date: 28 June 2019
Orbit: 633 x 2499 km, 38.9° (Epoch: 13 October)

Event Time Altitude Azimuth Distance (km) Brightness Sun altitude
Rises 18:35:07 0° 315° (NW) 4,240 12.9 -0.1°
Reaches altitude 10° 18:39:18 10° 331° (NNW) 2,912 11.5 -1.0°
Maximum altitude 18:44:01 20° 16° (NNE) 1,935 9.7 -2.0°
Drops below altitude 10° 18:47:50 10° 63° (ENE) 2,276 9.6 -2.8°
Sets 18:50:36 0° 82° (E) 3,051 10.1 -3.4°
